Location: Saint Louis
(38.6272°N, 90.1978°W)
Time: 02:01:01
(UTC-05:00)

ISS - Pass Details

Date: 06 August 2013
Orbit: 400 x 410 km, 51.6° (Epoch: 01 October)

Event Time Altitude Azimuth Distance (km) Brightness Sun altitude
Rises 21:36:34 0° 317° (NW) 2,344 2.3 -16.3°
Reaches altitude 10° 21:40:20 10° 1° (N) 1,463 0.0 -16.8°
Maximum altitude 21:40:58 10° 12° (NNE) 1,437 -0.2 -16.9°
Drops below altitude 10° 21:41:35 10° 23° (NNE) 1,459 -0.3 -17.0°
Enters shadow 21:43:25 - 50° (NE) 1,763 -0.2 -17.3°
